KLM79C EHAM-EKCH

Flight info

Callsign KLM79C
Flight time 0h 57m
Altitude 27000
Route ANDIK JUIST DOSUR TALSA P729 TUDLO
Aircraft A21N/M-SDE2E3FGHIRWXY/LB1

Departure

Time 2026-05-05 13:31
Airport Amsterdam Airport Schiphol (EHAM)

Arrival

Time 2026-05-05 14:28
Airport Copenhagen Kastrup Airport (EKCH)
Time Latitude Longitude Altitude Speed Heading
2026-05-05 12:57 52.30535 4.76509 4 ft 0 kts 59°
2026-05-05 13:22 52.30526 4.76481 4 ft 4 kts 70°
2026-05-05 13:22 52.30522 4.76440 4 ft 4 kts 102°
2026-05-05 13:22 52.30533 4.76409 4 ft 3 kts 147°
2026-05-05 13:23 52.30534 4.76407 4 ft 0 kts 148°
2026-05-05 13:25 52.30520 4.76421 4 ft 4 kts 148°
2026-05-05 13:25 52.30482 4.76461 4 ft 9 kts 148°
2026-05-05 13:25 52.30412 4.76535 4 ft 18 kts 145°
2026-05-05 13:25 52.30355 4.76645 4 ft 14 kts 102°
2026-05-05 13:26 52.30284 4.76724 4 ft 16 kts 212°
2026-05-05 13:26 52.30217 4.76575 4 ft 17 kts 237°
2026-05-05 13:26 52.30152 4.76405 4 ft 18 kts 238°
2026-05-05 13:26 52.30082 4.76222 4 ft 19 kts 238°
2026-05-05 13:27 52.30008 4.76029 4 ft 21 kts 238°
2026-05-05 13:27 52.29930 4.75825 4 ft 22 kts 238°
2026-05-05 13:27 52.29846 4.75612 4 ft 23 kts 237°
2026-05-05 13:27 52.29770 4.75383 4 ft 24 kts 271°
2026-05-05 13:28 52.29861 4.75161 5 ft 25 kts 310°
2026-05-05 13:28 52.29978 4.74943 5 ft 26 kts 311°
2026-05-05 13:28 52.30100 4.74716 9 ft 27 kts 312°
2026-05-05 13:28 52.30193 4.74546 15 ft 19 kts 311°
2026-05-05 13:29 52.30262 4.74417 15 ft 13 kts 311°
2026-05-05 13:29 52.30320 4.74310 6 ft 10 kts 310°
2026-05-05 13:29 52.30368 4.74218 5 ft 12 kts 310°
2026-05-05 13:29 52.30422 4.74108 4 ft 13 kts 291°
2026-05-05 13:30 52.30407 4.73955 4 ft 15 kts 270°
2026-05-05 13:30 52.30410 4.73836 3 ft 9 kts 274°
2026-05-05 13:30 52.30452 4.73765 3 ft 10 kts 349°
2026-05-05 13:30 52.30669 4.73781 3 ft 67 kts
2026-05-05 13:31 52.31374 4.73845 3 ft 134 kts
2026-05-05 13:31 52.32445 4.73924 219 ft 163 kts
2026-05-05 13:31 52.33602 4.74025 902 ft 170 kts 10°
2026-05-05 13:31 52.34652 4.74857 1633 ft 175 kts 42°
2026-05-05 13:32 52.35636 4.76175 2192 ft 193 kts 31°
2026-05-05 13:32 52.37001 4.76916 2547 ft 221 kts 19°
2026-05-05 13:32 52.38408 4.78151 2988 ft 240 kts 40°
2026-05-05 13:32 52.39653 4.80053 3716 ft 248 kts 44°
2026-05-05 13:33 52.40892 4.82068 4579 ft 254 kts 45°
2026-05-05 13:33 52.42150 4.84129 5369 ft 259 kts 44°
2026-05-05 13:33 52.43636 4.85837 6090 ft 266 kts 22°
2026-05-05 13:33 52.45463 4.86418 6769 ft 272 kts 360°
2026-05-05 13:34 52.47361 4.86240 7517 ft 275 kts 354°
2026-05-05 13:34 52.49286 4.85974 8308 ft 279 kts 354°
2026-05-05 13:34 52.51235 4.85734 9119 ft 283 kts 356°
2026-05-05 13:34 52.53207 4.85971 9902 ft 288 kts 14°
2026-05-05 13:35 52.55042 4.87448 10348 ft 306 kts 39°
2026-05-05 13:35 52.56526 4.90119 10662 ft 327 kts 51°
2026-05-05 13:35 52.57939 4.93198 10953 ft 348 kts 52°
2026-05-05 13:35 52.59434 4.96460 11226 ft 366 kts 51°
2026-05-05 13:36 52.61009 4.99834 11722 ft 375 kts 51°
2026-05-05 13:36 52.62620 5.03241 12381 ft 379 kts 51°
2026-05-05 13:36 52.64252 5.06677 13036 ft 383 kts 51°
2026-05-05 13:36 52.65905 5.10144 13695 ft 387 kts 51°
2026-05-05 13:37 52.67584 5.13668 14145 ft 395 kts 50°
2026-05-05 13:37 52.69290 5.17251 14689 ft 399 kts 51°
2026-05-05 13:37 52.71009 5.20867 15246 ft 402 kts 51°
2026-05-05 13:37 52.72738 5.24505 15806 ft 405 kts 51°
2026-05-05 13:38 52.74483 5.28177 16325 ft 409 kts 51°
2026-05-05 13:38 52.76242 5.31892 16852 ft 412 kts 51°
2026-05-05 13:38 52.78016 5.35635 17327 ft 416 kts 51°
2026-05-05 13:38 52.79687 5.39166 17802 ft 419 kts 52°
2026-05-05 13:39 52.81481 5.42976 18272 ft 422 kts 52°
2026-05-05 13:39 52.83286 5.46822 18692 ft 425 kts 52°
2026-05-05 13:39 52.85105 5.50700 19122 ft 428 kts 52°
2026-05-05 13:39 52.86936 5.54605 19544 ft 431 kts 52°
2026-05-05 13:40 52.88777 5.58538 19963 ft 433 kts 51°
2026-05-05 13:40 52.90626 5.62492 20365 ft 436 kts 52°
2026-05-05 13:40 52.92487 5.66478 20791 ft 439 kts 52°
2026-05-05 13:40 52.94361 5.70500 21203 ft 442 kts 52°
2026-05-05 13:41 52.96247 5.74553 21594 ft 445 kts 52°
2026-05-05 13:41 52.98142 5.78628 21991 ft 448 kts 52°
2026-05-05 13:41 53.00050 5.82741 22391 ft 451 kts 52°
2026-05-05 13:41 53.01967 5.86882 22798 ft 454 kts 52°
2026-05-05 13:42 53.03897 5.91056 23199 ft 457 kts 52°
2026-05-05 13:42 53.05837 5.95254 23583 ft 460 kts 52°
2026-05-05 13:42 53.07790 5.99493 23923 ft 463 kts 52°
2026-05-05 13:42 53.09750 6.03754 24269 ft 466 kts 52°
2026-05-05 13:43 53.11725 6.08059 24584 ft 470 kts 52°
2026-05-05 13:43 53.13714 6.12400 24884 ft 473 kts 52°
2026-05-05 13:43 53.15716 6.16773 25197 ft 476 kts 52°
2026-05-05 13:43 53.17725 6.21171 25526 ft 478 kts 52°
2026-05-05 13:44 53.19743 6.25602 25849 ft 481 kts 52°
2026-05-05 13:44 53.21767 6.30053 26161 ft 484 kts 52°
2026-05-05 13:44 53.23807 6.34540 26464 ft 486 kts 52°
2026-05-05 13:44 53.25854 6.39051 26789 ft 488 kts 52°
2026-05-05 13:45 53.27906 6.43583 26977 ft 489 kts 52°
2026-05-05 13:45 53.29951 6.48114 26985 ft 488 kts 52°
2026-05-05 13:45 53.31999 6.52649 26982 ft 488 kts 52°
2026-05-05 13:45 53.34055 6.57168 26948 ft 488 kts 50°
2026-05-05 13:46 53.36370 6.61301 26941 ft 487 kts 41°
2026-05-05 13:46 53.38860 6.65142 26946 ft 487 kts 41°
2026-05-05 13:46 53.41360 6.68972 26947 ft 487 kts 41°
2026-05-05 13:46 53.43857 6.72807 26941 ft 486 kts 41°
2026-05-05 13:47 53.46343 6.76641 26949 ft 486 kts 41°
2026-05-05 13:47 53.48831 6.80483 26960 ft 486 kts 41°
2026-05-05 13:47 53.51316 6.84329 26946 ft 486 kts 41°
2026-05-05 13:47 53.53804 6.88185 26940 ft 486 kts 41°
2026-05-05 13:48 53.56284 6.92064 26961 ft 488 kts 42°
2026-05-05 13:48 53.58699 6.96081 26955 ft 489 kts 43°
2026-05-05 13:48 53.61107 7.00120 26953 ft 489 kts 43°
2026-05-05 13:48 53.63513 7.04162 26953 ft 489 kts 43°
2026-05-05 13:49 53.65917 7.08206 26951 ft 489 kts 43°
2026-05-05 13:49 53.68320 7.12258 26949 ft 489 kts 43°
2026-05-05 13:49 53.70720 7.16315 26950 ft 489 kts 43°
2026-05-05 13:49 53.73122 7.20378 26955 ft 489 kts 43°
2026-05-05 13:50 53.75519 7.24438 26958 ft 489 kts 43°
2026-05-05 13:50 53.77918 7.28511 26975 ft 489 kts 43°
2026-05-05 13:50 53.80315 7.32591 26964 ft 489 kts 43°
2026-05-05 13:50 53.82711 7.36678 26955 ft 490 kts 43°
2026-05-05 13:51 53.85109 7.40777 26955 ft 490 kts 43°
2026-05-05 13:51 53.86696 7.43494 26955 ft 491 kts 43°
2026-05-05 13:51 53.89100 7.47603 26958 ft 491 kts 43°
2026-05-05 13:51 53.91502 7.51716 26958 ft 491 kts 43°
2026-05-05 13:52 53.93904 7.55833 26956 ft 491 kts 43°
2026-05-05 13:52 53.96303 7.59955 26953 ft 491 kts 44°
2026-05-05 13:52 53.99510 7.65480 26953 ft 491 kts 44°
2026-05-05 13:52 54.01095 7.68220 26972 ft 490 kts 44°
2026-05-05 13:53 54.03478 7.72341 26962 ft 489 kts 44°
2026-05-05 13:53 54.05863 7.76473 26957 ft 489 kts 44°
2026-05-05 13:53 54.08246 7.80606 26957 ft 489 kts 44°
2026-05-05 13:53 54.10625 7.84742 26951 ft 489 kts 44°
2026-05-05 13:54 54.13005 7.88889 26954 ft 489 kts 44°
2026-05-05 13:54 54.15385 7.93041 26953 ft 489 kts 44°
2026-05-05 13:54 54.17760 7.97192 26950 ft 490 kts 44°
2026-05-05 13:54 54.20140 8.01360 26955 ft 490 kts 44°
2026-05-05 13:55 54.22523 8.05538 26953 ft 491 kts 44°
2026-05-05 13:55 54.24894 8.09706 26964 ft 488 kts 44°
2026-05-05 13:55 54.27262 8.13873 26957 ft 488 kts 44°
2026-05-05 13:55 54.29626 8.18041 26956 ft 488 kts 44°
2026-05-05 13:56 54.31992 8.22219 26951 ft 488 kts 44°
2026-05-05 13:56 54.34352 8.26394 26951 ft 488 kts 44°
2026-05-05 13:56 54.36714 8.30584 26950 ft 488 kts 44°
2026-05-05 13:56 54.39040 8.34720 26950 ft 488 kts 44°
2026-05-05 13:57 54.41214 8.38590 26947 ft 488 kts 44°
2026-05-05 13:57 54.43575 8.42793 26947 ft 489 kts 44°
2026-05-05 13:57 54.45930 8.46990 26969 ft 488 kts 44°
2026-05-05 13:57 54.48269 8.51172 26958 ft 482 kts 44°
2026-05-05 13:58 54.50597 8.55341 26952 ft 483 kts 44°
2026-05-05 13:58 54.52926 8.59518 26950 ft 483 kts 44°
2026-05-05 13:58 54.55253 8.63700 26938 ft 484 kts 44°
2026-05-05 13:58 54.57577 8.67886 26941 ft 484 kts 44°
2026-05-05 13:59 54.62235 8.76291 26941 ft 484 kts 44°
2026-05-05 13:59 54.64560 8.80500 26941 ft 484 kts 44°
2026-05-05 14:00 54.69206 8.88931 26953 ft 484 kts 45°
2026-05-05 14:00 54.71521 8.93148 26944 ft 482 kts 45°
2026-05-05 14:00 54.73832 8.97359 26941 ft 483 kts 45°
2026-05-05 14:00 54.76138 9.01570 26939 ft 483 kts 45°
2026-05-05 14:01 54.78447 9.05795 26939 ft 482 kts 45°
2026-05-05 14:01 54.80751 9.10020 26936 ft 482 kts 45°
2026-05-05 14:01 54.83054 9.14247 26935 ft 482 kts 45°
2026-05-05 14:01 54.85357 9.18488 26935 ft 482 kts 45°
2026-05-05 14:02 54.87595 9.22824 26933 ft 483 kts 47°
2026-05-05 14:02 54.89819 9.27195 26933 ft 483 kts 47°
2026-05-05 14:02 54.92039 9.31568 26943 ft 483 kts 47°
2026-05-05 14:02 54.94267 9.35963 26937 ft 484 kts 47°
2026-05-05 14:03 54.96492 9.40361 26937 ft 484 kts 47°
2026-05-05 14:03 54.98719 9.44768 26939 ft 484 kts 47°
2026-05-05 14:03 55.00942 9.49178 26937 ft 485 kts 47°
2026-05-05 14:03 55.03164 9.53595 26937 ft 485 kts 47°
2026-05-05 14:04 55.05383 9.58016 26935 ft 485 kts 47°
2026-05-05 14:04 55.07599 9.62442 26936 ft 485 kts 47°
2026-05-05 14:04 55.09721 9.67014 26930 ft 486 kts 54°
2026-05-05 14:04 55.11323 9.72204 26931 ft 487 kts 68°
2026-05-05 14:05 55.12413 9.77817 26940 ft 487 kts 73°
2026-05-05 14:05 55.13403 9.83474 26954 ft 489 kts 73°
2026-05-05 14:05 55.14395 9.89177 26943 ft 491 kts 73°
2026-05-05 14:05 55.15398 9.94882 26933 ft 490 kts 72°
2026-05-05 14:06 55.16405 10.00575 26937 ft 489 kts 72°
2026-05-05 14:06 55.17410 10.06259 26938 ft 489 kts 72°
2026-05-05 14:06 55.18392 10.11818 26695 ft 479 kts 72°
2026-05-05 14:06 55.19366 10.17357 26359 ft 474 kts 72°
2026-05-05 14:07 55.20332 10.22862 26081 ft 472 kts 73°
2026-05-05 14:07 55.21290 10.28343 25818 ft 471 kts 73°
2026-05-05 14:07 55.22244 10.33817 25577 ft 469 kts 73°
2026-05-05 14:07 55.23193 10.39278 25330 ft 468 kts 73°
2026-05-05 14:08 55.24136 10.44723 25089 ft 466 kts 73°
2026-05-05 14:08 55.25074 10.50150 24845 ft 465 kts 73°
2026-05-05 14:08 55.26007 10.55567 24602 ft 464 kts 73°
2026-05-05 14:08 55.26934 10.60968 24349 ft 462 kts 73°
2026-05-05 14:09 55.27854 10.66341 23827 ft 458 kts 73°
2026-05-05 14:09 55.28769 10.71681 23118 ft 456 kts 73°
2026-05-05 14:09 55.29683 10.77003 22380 ft 453 kts 73°
2026-05-05 14:09 55.30588 10.82282 21665 ft 450 kts 73°
2026-05-05 14:10 55.31485 10.87541 20940 ft 448 kts 73°
2026-05-05 14:10 55.32372 10.92760 20267 ft 445 kts 73°
2026-05-05 14:10 55.33250 10.97943 19627 ft 441 kts 73°
2026-05-05 14:10 55.34111 11.03093 19020 ft 437 kts 73°
2026-05-05 14:11 55.34959 11.08202 18430 ft 433 kts 73°
2026-05-05 14:11 55.35797 11.13260 17779 ft 429 kts 73°
2026-05-05 14:11 55.36626 11.18271 17172 ft 424 kts 73°
2026-05-05 14:11 55.37440 11.23224 16570 ft 420 kts 73°
2026-05-05 14:12 55.38246 11.28133 15988 ft 415 kts 73°
2026-05-05 14:12 55.39040 11.32976 15445 ft 410 kts 73°
2026-05-05 14:12 55.39824 11.37771 14913 ft 405 kts 73°
2026-05-05 14:12 55.40599 11.42520 14361 ft 402 kts 73°
2026-05-05 14:13 55.41364 11.47229 13822 ft 398 kts 73°
2026-05-05 14:13 55.42121 11.51893 13247 ft 394 kts 73°
2026-05-05 14:13 55.42868 11.56513 12688 ft 390 kts 73°
2026-05-05 14:13 55.43607 11.61083 12146 ft 386 kts 73°
2026-05-05 14:14 55.44583 11.65436 11687 ft 378 kts 59°
2026-05-05 14:14 55.46011 11.69199 11373 ft 362 kts 52°
2026-05-05 14:14 55.47476 11.72688 11127 ft 346 kts 51°
2026-05-05 14:14 55.48863 11.76061 10865 ft 333 kts 52°
2026-05-05 14:15 55.50172 11.79343 10623 ft 321 kts 53°
2026-05-05 14:15 55.51421 11.82527 10317 ft 312 kts 53°
2026-05-05 14:15 55.52635 11.85650 9973 ft 307 kts 53°
2026-05-05 14:15 55.53836 11.88757 9589 ft 305 kts 53°
2026-05-05 14:16 55.55004 11.91804 9225 ft 302 kts 54°
2026-05-05 14:16 55.56171 11.94860 8879 ft 298 kts 54°
2026-05-05 14:16 55.57323 11.97880 8571 ft 296 kts 54°
2026-05-05 14:16 55.58470 12.00892 8279 ft 294 kts 54°
2026-05-05 14:17 55.59611 12.03890 7982 ft 293 kts 54°
2026-05-05 14:17 55.60741 12.06869 7696 ft 289 kts 54°
2026-05-05 14:17 55.61868 12.09770 7410 ft 284 kts 50°
2026-05-05 14:17 55.63245 12.12239 7130 ft 280 kts 39°
2026-05-05 14:18 55.64725 12.14464 6845 ft 279 kts 37°
2026-05-05 14:18 55.66196 12.16658 6566 ft 274 kts 37°
2026-05-05 14:18 55.67617 12.18876 6283 ft 270 kts 44°
2026-05-05 14:18 55.68614 12.21659 5989 ft 271 kts 69°
2026-05-05 14:19 55.68795 12.24975 5710 ft 274 kts 97°
2026-05-05 14:19 55.68099 12.28089 5444 ft 275 kts 124°
2026-05-05 14:19 55.66760 12.30479 5196 ft 273 kts 139°
2026-05-05 14:19 55.65282 12.32578 4934 ft 272 kts 140°
2026-05-05 14:20 55.63817 12.34673 4662 ft 270 kts 139°
2026-05-05 14:20 55.62363 12.36748 4392 ft 268 kts 143°
2026-05-05 14:20 55.60678 12.38107 4127 ft 268 kts 169°
2026-05-05 14:20 55.58848 12.37956 3870 ft 263 kts 199°
2026-05-05 14:21 55.57280 12.36407 3635 ft 257 kts 221°
2026-05-05 14:21 55.55972 12.34319 3441 ft 249 kts 224°
2026-05-05 14:21 55.54738 12.32271 3318 ft 236 kts 224°
2026-05-05 14:21 55.53581 12.30384 3363 ft 219 kts 224°
2026-05-05 14:22 55.52460 12.28589 3417 ft 218 kts 223°
2026-05-05 14:22 55.51140 12.27256 3386 ft 222 kts 193°
2026-05-05 14:22 55.49639 12.27550 3283 ft 220 kts 152°
2026-05-05 14:22 55.48576 12.29364 3179 ft 212 kts 117°
2026-05-05 14:23 55.48083 12.31768 3034 ft 207 kts 99°
2026-05-05 14:23 55.47757 12.34254 2870 ft 209 kts 101°
2026-05-05 14:23 55.47401 12.36660 2706 ft 197 kts 101°
2026-05-05 14:23 55.47094 12.38958 2487 ft 188 kts 93°
2026-05-05 14:24 55.47225 12.41184 2447 ft 181 kts 66°
2026-05-05 14:24 55.47922 12.42983 2470 ft 178 kts 44°
2026-05-05 14:24 55.48842 12.44414 2481 ft 176 kts 36°
2026-05-05 14:24 55.49774 12.45824 2471 ft 176 kts 37°
2026-05-05 14:25 55.50680 12.47212 2313 ft 166 kts 38°
2026-05-05 14:25 55.51514 12.48493 2100 ft 153 kts 38°
2026-05-05 14:25 55.52292 12.49690 1876 ft 147 kts 38°
2026-05-05 14:25 55.53060 12.50872 1674 ft 146 kts 38°
2026-05-05 14:26 55.53823 12.52048 1468 ft 145 kts 37°
2026-05-05 14:26 55.54582 12.53216 1278 ft 144 kts 38°
2026-05-05 14:26 55.55344 12.54379 1063 ft 145 kts 38°
2026-05-05 14:26 55.56097 12.55540 843 ft 144 kts 40°
2026-05-05 14:27 55.56847 12.56699 667 ft 143 kts 39°
2026-05-05 14:27 55.57598 12.57844 476 ft 142 kts 38°
2026-05-05 14:27 55.58342 12.58999 274 ft 143 kts 38°
2026-05-05 14:27 55.59080 12.60140 105 ft 140 kts 38°
2026-05-05 14:28 55.59798 12.61252 25 ft 130 kts 38°
2026-05-05 14:28 55.60351 12.62101 23 ft 78 kts 40°
2026-05-05 14:28 55.60651 12.62566 25 ft 41 kts 42°
2026-05-05 14:28 55.60842 12.62866 23 ft 35 kts 38°
2026-05-05 14:29 55.61014 12.63127 26 ft 33 kts 41°
2026-05-05 14:29 55.61128 12.63302 26 ft 17 kts 31°
2026-05-05 14:29 55.61245 12.63320 25 ft 18 kts 356°
2026-05-05 14:29 55.61358 12.63310 23 ft 14 kts
2026-05-05 14:30 55.61442 12.63411 24 ft 16 kts 41°
2026-05-05 14:30 55.61527 12.63543 24 ft 17 kts 41°
2026-05-05 14:30 55.61621 12.63687 23 ft 19 kts 41°
2026-05-05 14:30 55.61723 12.63844 23 ft 20 kts 41°
2026-05-05 14:31 55.61831 12.64012 23 ft 21 kts 41°
2026-05-05 14:31 55.61926 12.64166 23 ft 18 kts 76°
2026-05-05 14:31 55.61950 12.64387 22 ft 19 kts 77°
2026-05-05 14:31 55.62032 12.64568 22 ft 20 kts 32°
2026-05-05 14:32 55.62155 12.64709 25 ft 22 kts 33°
2026-05-05 14:32 55.62264 12.64794 23 ft 18 kts 355°
2026-05-05 14:32 55.62372 12.64783 22 ft 11 kts 358°
2026-05-05 14:32 55.62441 12.64779 22 ft 11 kts 357°
2026-05-05 14:33 55.62513 12.64773 22 ft 7 kts 359°
2026-05-05 14:33 55.62546 12.64801 23 ft 6 kts 70°
2026-05-05 14:33 55.62553 12.64876 22 ft 4 kts 88°
2026-05-05 14:33 55.62554 12.64891 22 ft 0 kts 87°